> Flugplatz > 
Stacks Image 3
Aktuelle METAR Daten (Memmingen, Friedrichshafen, Laupheim):
2017/03/26 07:50 EDJA 261950Z 07006KT CAVOK 04/M02 Q1022
2017/03/27 12:20 EDNY 270020Z AUTO 04004KT 010V070 9999 05/M04 Q1022
2017/03/27 12:20 ETHL 270020Z 04003KT 9999 02/M05 Q1023 BLU+
Sicherheits- und Servicehinweise:

Bitte achten Sie beim Anflug auf mögliche Fall­schirm­springer auf der Nordseite des Platzes, kontaktieren Sie zur Sicherheit den Flugleiter auf Leutkirch INFO 122,875.

Zollabfertigung:
für Ein- und Ausflug bei Voranmeldung mindestens 3 Stunden, nur Personenverkehr – keine Warenabfertigung.

Günstig Tanken:
Avgas 100 II · Super 95 · Jet A1 · Diesel

Aktuelles:

Sommerflugbetrieb:
Der Flugplatz ist Mo – Sa von 09:00 Uhr
bis SS+30/20:00 Uhr (loc)
So. + Feiertags ab 10:30 Uhr
bis SS+30/20:00 Uhr (loc) geöffnet.

Weitere Informationen finden Sie in unserem Newsbereich.

Nutzen Sie unsere Online-Anmeldung zur Zoll- und Passkontrolle.